         **** Don't distribute anyone except personal use only ****

                (C) Copyright 2003 OAA/ComputingSection

write mail from CFAD0::NAKANO on 2003-09-09 03:44:33(JST).

 

    C/2003 K4 (LINEAR)                                                    

T 2004 Oct. 13.76749 TT                                 Nakano

q   1.0228992            (2000.0)            P               Q

                   Peri.  198.46275     -0.96937728     +0.08830801

                   Node    18.65724     +0.00392479     +0.93856031

e   1.0            Incl.  134.25001     -0.24554488     -0.33362590

From 631 observations 2003 May 28-Aug. 10.





NAKANO

         **** Don't distribute anyone except personal use only ****

                (C) Copyright 2003 OAA/ComputingSection

write mail from CFAD0::NAKANO on 2003-08-14 04:29:34(JST).

 



    C/2003 K4 (LINEAR)                                                    

T 2004 Oct. 14.03928 TT                                 Nakano

q   1.0244166            (2000.0)            P               Q

                   Peri.  198.40936     -0.96949245     +0.08779712

                   Node    18.62937     +0.00346389     +0.93846705

e   1.0            Incl.  134.23996     -0.24509669     -0.33402285

From 205 observations 2003 May 28-June 16.



NAKANO

         **** Don't distribute anyone except personal use only ****

                (C) Copyright 2003 OAA/ComputingSection

write mail from CFAD0::NAKANO on 2003-06-18 05:56:37(JST).

 

◎C/2003 K4の軌道と予報位置です



 上尾の門田健一氏から6月2日の観測が報告されました.氏の CCD全光度は

16.7等でした.下の軌道は,MPEC K52(=IAUC 8139)の軌道(q= 8.5 AU)とは

かけ離れていますが,これが正しいものと思います.なお,軌道は,C/2003 H1

(q= 2.24AU)の軌道にqを除けば,良く似ています.軌道が正しい場合,

来年秋に6等級くらいになります.



    C/2003 K4 (LINEAR) 

T 2004 Oct. 12.62971 TT                                 Nakano

q   1.0174257            (2000.0)            P               Q

                   Peri.  198.80028     -0.96846798     +0.08963954

                   Node    18.97049     +0.00479151     +0.93955898

e   1.0            Incl.  134.35169     -0.24909198     -0.33044467

From 74 observations 2003 May 28-June 2.

 

Date/        TT  R.A.(2000) Decl.     Delta   r     Daily motion  Mag.  Moon Age

              h    h  m       。  ,                      ,  / PA 。  m1      。

2003 June  1 18  21 13.68  +29 22.3   5.879  6.067     8.4 / 318  16.2  106  .02

           2 18  21 13.26  +29 28.5   5.857  6.058     8.5 / 317  16.2  114  .06

           3 18  21 12.82  +29 34.8   5.835  6.049     8.6 / 316  16.1  121  .12

           4 18  21 12.36  +29 41.0   5.814  6.040     8.7 / 315  16.1  126  .19

           5 18  21 11.89  +29 47.1   5.792  6.031     8.8 / 314  16.1  130  .28

           6 18  21 11.40  +29 53.2   5.771  6.022     8.9 / 313  16.1  131  .38

           7 18  21 10.90  +29 59.2   5.749  6.013     9.0 / 312  16.1  130  .49

           8 18  21 10.38  +30 05.1   5.728  6.004     9.1 / 310  16.1  126  .60

           9 18  21 09.85  +30 11.0   5.707  5.995     9.2 / 309  16.1  120  .71

          10 18  21 09.30  +30 16.9   5.686  5.986     9.3 / 308  16.0  112  .81

          11 18  21 08.73  +30 22.7   5.665  5.977     9.4 / 307  16.0  103  .89

          12 18  21 08.15  +30 28.4   5.644  5.968     9.5 / 306  16.0   93  .96

          13 18  21 07.56  +30 34.0   5.623  5.958     9.7 / 305  16.0   83  .99

          14 18  21 06.94  +30 39.6   5.602  5.949     9.8 / 304  16.0   74 1.00

          15 18  21 06.32  +30 45.1   5.581  5.940     9.9 / 303  16.0   66  .98

          16 18  21 05.67  +30 50.5   5.561  5.931    10.0 / 302  16.0   59  .93

          17 18  21 05.01  +30 55.8   5.541  5.922    10.1 / 301  15.9   53  .86

          18 18  21 04.34  +31 01.0   5.520  5.913    10.3 / 300  15.9   51  .78

          19 18  21 03.65  +31 06.2   5.500  5.904    10.4 / 299  15.9   51  .68

          20 18  21 02.94  +31 11.2   5.480  5.895    10.5 / 298  15.9   53  .59

          21 18  21 02.22  +31 16.2   5.460  5.886    10.6 / 297  15.9   57  .49

          22 18  21 01.48  +31 21.0   5.441  5.877    10.8 / 296  15.9   62  .39

          23 18  21 00.72  +31 25.8   5.421  5.867    10.9 / 295  15.9   69  .30

          24 18  20 59.95  +31 30.4   5.402  5.858    11.0 / 294  15.8   76  .22

          25 18  20 59.17  +31 35.0   5.382  5.849    11.1 / 293  15.8   83  .14

          26 18  20 58.37  +31 39.4   5.363  5.840    11.3 / 292  15.8   91  .08

          27 18  20 57.55  +31 43.7   5.344  5.831    11.4 / 292  15.8   98  .04

          28 18  20 56.72  +31 47.9   5.326  5.822    11.5 / 291  15.8  105  .01

          29 18  20 55.87  +31 51.9   5.307  5.813    11.7 / 290  15.8  112  .00

          30 18  20 55.01  +31 55.8   5.289  5.803    11.8 / 289  15.8  119  .01

     July  1 18  20 54.13  +31 59.6   5.270  5.794    11.9 / 288  15.7  123  .04

NAKANO

         **** Don't distribute anyone except personal use only ****

                (C) Copyright 2003 OAA/ComputingSection

write mail from CFAD0::NAKANO on 2003-06-03 04:16:23(JST).

 

戻ります。